Regional Weather Roundup
Issued by NWS Bismarck, ND

Home | Current Version | Previous Version | Text Only | Print | Product List | Glossary On
Versions: 1 2 3 4 5 6 7 8 9 10 11 12 13 14 15 16 17 18 19 20 21 22 23 24 25 26 27 28 29 30 31 32 33 34 35 36 37 38 39 40 41 42 43 44 45 46 47 48 49 50
000
ASUS43 KBIS 241410
RWRBIS

NWR BROADCAST TEXT
NATIONAL WEATHER SERVICE BISMARCK ND
900 AM CDT SUN MAY 24 2015

NOTE: "FAIR" INDICATES FEW OR NO CLOUDS BELOW 12,000 FEET WITH NO
SIGNIFICANT WEATHER AND/OR OBSTRUCTIONS TO VISIBILITY.


CITY           SKY/WX    TMP DP  RH WIND       PRES   REMARKS
WILLISTON      MOSUNNY   53  44  71 NE5       30.06F
MINOT          PTSUNNY   58  47  66 S3        30.06F
MINOT AFB      PTSUNNY   66  52  60 E3        30.05S
BISMARCK       CLOUDY    60  53  77 E10       30.06S
DICKINSON      LGT RAIN  51  49  92 E8        30.06R FOG
GARRISON         N/A     59  52  77 E5        30.06F
HETTINGER ARPT CLOUDY    53  50  89 NE10      30.05S
JAMESTOWN      CLOUDY    61  51  70 NE10      30.04F
BEACH          CLOUDY    50  50 100 E6        30.08S
CARRINGTON     FAIR      57  55  94 E6        30.08F
CROSBY         FAIR      63  46  55 CALM      30.07S
HARVEY         FAIR      63  50  63 NE6       30.07F
HAZEN          CLOUDY    54  52  94 E5        30.08S
LINTON         FAIR      59  54  82 NE8       30.03S
MANDAN         PTSUNNY   57  54  88 E8        30.06S
OAKES            N/A     59  50  72 NE12      30.02F
STANLEY        FAIR      57  55  94 E5        30.07F
WATFORD CITY   PTSUNNY   54  46  76 SE3       30.05S
$$

CITY           SKY/WX    TMP DP  RH WIND       PRES   REMARKS
GRAND FORKS    MOSUNNY   63  49  60 CALM      30.06F
GRAND FORKS AF MOSUNNY   62  49  62 SE2       30.07F
DEVILS LAKE    MOSUNNY   63  52  67 CALM      30.07F
FARGO          CLOUDY    64  50  60 NE8       30.05F
CANDO          FAIR      63  48  59 NE3       30.07F
CAVALIER       FAIR      64  48  55 SE3       30.07S
GRAFTON        FAIR      63  50  63 CALM      30.08S
LANGDON        FAIR      66  48  52 N8        30.08S
ROLLA          FAIR      66  36  32 CALM      30.08F
WALHALLA         N/A     68  48  49 NW5       30.06S
$$

CITY           SKY/WX    TMP DP  RH WIND       PRES   REMARKS
ABERDEEN       CLOUDY    60  51  72 NE8       29.99F
MOBRIDGE       CLOUDY    58  50  75 E9        29.98S
BUFFALO          N/A     52  51  97 NE15      29.95F
RAPID CITY     HVY RAIN  52  51  97 E17       29.93F FOG
GLASGOW        CLOUDY    51  43  74 NW3       30.07S
SIDNEY         SUNNY     57  46  67 CALM      30.07S
WOLF POINT     PTSUNNY   56  45  66 CALM      30.07F
GLENDIVE       SUNNY     55  46  71 E7        30.08R
MILES CITY     PTSUNNY   54  49  83 NE10      30.05R
BAKER          PTSUNNY   52  50  93 E10       30.06S
$$

CITY           SKY/WX    TMP DP  RH WIND       PRES   REMARKS
BILLINGS       LGT RAIN  49  47  93 N8        30.05S FOG
GREAT FALLS    MOSUNNY   49  48  97 NE6       30.10S
REGINA         MOSUNNY   61  41  48 NW3       30.07F
ESTEVAN        MOSUNNY   61  45  55 SW3       30.06F
$$




USA.gov is the U.S. government's official web portal to all federal, state and local government web resources and services.